Tracking 31011 objects as of 13-Jul-2025
HD Live streaming from Space Station
objects crossing your sky now

SL-14 DEB

Track SL-14 DEB now!
10-day predictions


NORAD ID: 26028
Int'l Code: 1991-068AP
Perigee: 1,473.7 km
Apogee: 1,504.1 km
Inclination: 82.7 °
Period: 115.6 minutes
Semi major axis: 7859 km
RCS: 0.0352 m2 (small)
Launch date: September 28, 1991
Source: Commonwealth of Independent States (former USSR) (CIS)
Launch site: PLESETSK MISSILE AND SPACE COMPLEX (PKMTR)

Note: This is SATELLITE DEBRIS
Your satellite tracking list
Your tracking list is empty




NASA's NSSDC Master Catalog

Two Line Element Set (TLE):
1 26028U 91068AP  25193.58362799 -.00000004  00000-0 -10103-3 0  9995
2 26028  82.6979 131.2813 0019323 182.4838   3.5489 12.45886851191741
Source of the keplerian elements: AFSPC